Location: Atherton
(17.2661°S, 145.4859°E)
Time: 04:31:30
(UTC+10:00)

ARIANE 6 FM1 Upper Stage - Visible Passes

Search period start: 20 May 2025 00:00
Search period end: 30 May 2025 00:00
Orbit: 533 x 609 km, 62.0° (Epoch: 18 May)

Date Brightness Start Highest point End Pass type
(mag) Time Alt. Az. Time Alt. Az. Time Alt. Az.
20 May 5.5 18:49:43 10° WSW 18:52:55 21° WNW 18:56:03 10° NNW visible
21 May 6.3 18:53:02 10° W 18:54:37 12° WNW 18:56:11 10° NW visible
23 May 6.5 05:25:53 10° NE 05:27:02 11° ENE 05:28:12 10° E visible
24 May 5.8 05:25:35 10° NNE 05:28:44 19° ENE 05:31:55 10° ESE visible
25 May 4.7 05:26:29 10° N 05:30:26 33° ENE 05:34:27 10° SE visible
26 May 3.4 05:27:51 10° NNW 05:32:09 60° ENE 05:36:34 10° SE visible
27 May 2.7 05:29:32 10° NNW 05:33:55 76° WSW 05:38:24 10° SSE visible
28 May 6.1 03:56:34 10° ENE 03:56:59 10° ENE 03:57:22 10° ENE visible
28 May 3.1 05:31:32 10° NW 05:35:42 42° WSW 05:39:58 10° S visible
29 May 5.7 04:00:52 13° ESE 04:00:52 13° ESE 04:01:41 10° ESE visible
29 May 3.8 05:37:13 25° WSW 05:37:32 25° WSW 05:41:14 10° S visible
